Погода в Затоне

Хорватия     44°13′17″N   15°10′15″E
темп.,
°C
ветер,
м/с
пор.,
м/с
влажн.,
%
обл.,
%
осадки,
мм/ч
давл.,
гПа
погр.,
м
17 августа, ср
ср1723:00+23вюв23800 0.0 101390
02:00+23в33770 0.0 101380
05:00+23в22720 0.0 101250
08:00+25в22630 0.0 1013193
11:00+27зюз32530 0.0 1014733
14:00+27зсз32570 0.0 1014566
17:00+27ссз21560 0.0 1012334
20:00+25всв22650 0.0 101231
18 августа, чт
чт1823:00+24всв12620 0.0 101213
02:00+24всв11610 0.0 101211
05:00+24всв33520 0.0 101129
08:00+27вюв23430 0.0 1011123
11:00+31ю33384 0.0 1011702
14:00+29зюз344716 0.0 1011439
17:00+29ссз325241 0.0 1011303
20:00+27вюв4551100 0.1 100865
19 августа, пт
пт1923:00+26всв33536 0.0 100719
02:00+25ссз6966100 0.0 1007207
05:00+25св4558100 0.1 100970
08:00+24вюв71165100 1.0 1010386
11:00+28зсз34477 0.9 1008448
14:00+28зсз56560 0.9 1008562
17:00+27сз796192 0.0 1007388
20:00+25сз5871100 0.0 1008248
20 августа, сб
сб2023:00+25ссз586699 0.0 1010315
02:00+24сз4669100 0.0 1010209
05:00+23ссз347285 0.0 1010161
08:00+25с335972 0.1 1011291
11:00+27сз445465 0.0 1011699
14:00+27сз775725 0.0 1011445
17:00+28сз67535 0.0 1011434
20:00+26с68553 0.0 1012187
21 августа, вс
вс2123:00+24ссв58610 0.0 1012179
02:00+22св676227 0.0 1013159
05:00+22св56640 0.0 1013121
08:00+24св56540 0.0 1013214
11:00+29ссз58400 0.0 10131128
14:00+29сз78410 0.0 10121350
17:00+29сз67450 0.0 1011587
20:00+26ссз46555 0.0 101076